DateTimeUTC,F1_A11,F1_S11,BsB_S11,BsG_S11,BsR_S11,BbsB_S11,BbsG_S11,BbsR_S11,BaB_A11,BaG_A11,BaR_A11,Tu_S11,T_S11,Uu_S11,U_S11,P_S11,T1_A11
2021-07-22T10:00:00Z,00000200,20000000,,,,,,,-000.16,0000.29,0000.08,18.4,25.2,08.9,05.9,0668.2,31.1
2021-07-22T10:01:00Z,00000200,20000000,,,,,,,-000.25,-000.08,-000.32,18.4,25.2,08.9,05.9,0668.2,31.1
2021-07-22T10:02:00Z,00000200,20000000,,,,,,,-000.09,-000.13,0000.00,18.4,25.2,08.8,05.8,0668.2,31.1
2021-07-22T10:03:00Z,00000200,60000000,,,,,,,0000.43,0000.34,0000.61,18.4,25.2,08.6,05.7,0668.2,31.1
2021-07-22T10:04:00Z,00000200,40000000,0002.10,0001.57,0000.94,0000.20,0000.40,0000.34,0001.00,0000.44,0000.29,18.5,25.0,08.7,05.9,0669.2,31.1
2021-07-22T10:05:00Z,00000200,00000000,0001.47,0001.59,0000.79,0000.41,0000.40,0000.16,0000.28,0000.35,0000.23,18.5,25.0,08.8,05.9,0669.2,31.0
2021-07-22T10:06:00Z,00000200,00000000,0002.04,0001.27,0000.92,0000.19,0000.47,0000.47,0000.26,0000.50,0000.46,18.5,24.9,08.9,06.0,0669.2,31.1
2021-07-22T10:07:00Z,00000200,00000000,0002.84,0001.73,0000.72,0000.34,0000.38,0000.21,0000.53,0000.53,0000.33,18.5,24.9,09.0,06.1,0669.2,31.1
2021-07-22T10:08:00Z,00000200,00000000,0001.82,0001.56,0000.91,0000.41,0000.07,0000.43,0000.35,0000.28,0000.17,18.5,24.9,08.9,06.0,0669.2,31.1
2021-07-22T10:09:00Z,00000200,00000000,0001.60,0001.65,0000.75,0000.08,0000.45,0000.14,0000.34,0000.07,0000.18,18.5,24.9,08.9,06.1,0669.2,31.1
2021-07-22T10:10:00Z,00000200,00000000,0001.91,0001.57,0000.59,0000.05,0000.16,-000.03,0000.21,0000.53,0000.30,18.5,24.9,08.9,06.1,0669.2,31.1
2021-07-22T10:11:00Z,00000200,00000000,0002.14,0001.23,0000.49,0000.07,0000.39,0000.36,0000.55,0000.41,0000.17,18.5,24.9,08.9,06.1,0669.2,31.1
2021-07-22T10:12:00Z,00000200,00000000,0001.77,0001.30,0000.93,0000.27,0000.28,0000.04,0000.49,0000.21,0000.28,18.5,24.9,08.8,06.0,0669.2,31.1
2021-07-22T10:13:00Z,00000200,00000000,0001.78,0001.44,0000.69,-000.25,0000.04,0000.23,0000.43,0000.63,0000.35,18.5,24.9,08.8,06.0,0669.2,31.1
2021-07-22T10:14:00Z,00000200,00000000,0002.41,0001.53,0000.77,0000.55,0000.38,0000.34,0000.61,0000.70,0000.56,18.6,24.9,08.8,06.0,0669.2,31.1
2021-07-22T10:15:00Z,00000200,00000000,0002.22,0001.23,0000.94,-000.22,0000.28,0000.41,0000.82,0000.33,0000.53,18.7,24.9,08.8,06.0,0669.3,31.1
2021-07-22T10:16:00Z,00000200,00000000,0001.72,0001.56,0000.73,0000.06,0000.23,0000.38,-000.03,0000.12,-000.05,18.7,25.0,08.9,06.1,0669.3,31.1
2021-07-22T10:17:00Z,00000200,00000000,0002.30,0001.34,0000.64,-000.19,0000.03,0000.20,0000.38,0000.49,0000.31,18.7,25.0,08.9,06.1,0669.3,31.1
2021-07-22T10:18:00Z,00000200,00000000,0001.64,0001.30,0000.61,-000.20,0000.33,0000.05,0000.26,0000.05,0000.26,18.7,25.0,08.8,06.0,0669.3,31.1
2021-07-22T10:19:00Z,00000200,00000000,0002.72,0001.81,0000.75,0000.86,0000.19,0000.23,0000.50,0000.85,0000.29,18.8,25.0,08.8,06.0,0669.3,31.1
2021-07-22T10:20:00Z,00000200,00000000,0002.28,0001.62,0000.80,0000.48,0000.16,0000.37,0000.29,0000.01,0000.24,18.8,25.0,08.7,06.0,0669.3,31.1
2021-07-22T10:21:00Z,00000200,00000000,0002.83,0001.75,0000.79,0000.05,0000.05,0000.25,0000.46,0000.46,-000.09,18.8,25.0,08.7,05.9,0669.3,31.1
2021-07-22T10:22:00Z,00000200,00000000,0002.65,0001.37,0001.00,-000.19,0000.16,0000.26,0000.27,0000.50,0000.68,18.8,25.0,08.6,05.9,0669.3,31.1
2021-07-22T10:23:00Z,00000200,00000000,0001.95,0001.68,0000.93,-000.69,0000.11,0000.36,0000.51,0000.08,0000.67,18.8,25.0,08.6,05.8,0669.3,31.1
2021-07-22T10:24:00Z,00000200,00000000,0002.48,0001.46,0000.65,0000.73,0000.36,0000.53,0000.14,0000.42,-000.02,18.8,25.0,08.6,05.9,0669.3,31.1
2021-07-22T10:25:00Z,00000200,00000000,0002.75,0001.78,0001.10,0000.10,0000.34,0000.45,0000.50,0000.39,0000.18,18.7,25.0,08.5,05.8,0669.2,31.1
2021-07-22T10:26:00Z,00000200,00000000,0002.21,0001.65,0000.89,-000.02,0000.37,0000.33,0000.57,0000.53,0000.41,18.7,25.0,08.5,05.8,0669.2,31.1
2021-07-22T10:27:00Z,00000200,00000000,0002.62,0001.52,0001.00,-000.61,-000.07,-000.00,0000.53,0000.40,0000.37,18.7,25.0,08.5,05.8,0669.2,31.1
2021-07-22T10:28:00Z,00000200,00000000,0002.36,0002.05,0000.83,0000.14,0000.44,0000.15,0000.46,0000.45,0000.09,18.7,25.0,08.6,05.9,0669.2,31.1
2021-07-22T10:29:00Z,00000200,00000000,0003.29,0001.87,0000.74,0000.67,0000.42,0000.61,0000.21,0000.14,0000.50,18.7,25.0,08.5,05.8,0669.3,31.1
2021-07-22T10:30:00Z,00000200,00000000,0002.07,0001.93,0000.43,0000.48,0000.25,0000.13,0000.78,0000.31,0000.22,18.7,25.0,08.4,05.7,0669.2,31.1
2021-07-22T10:31:00Z,00000200,00000000,0002.25,0001.67,0000.89,0000.37,0000.18,0000.28,-000.21,0000.20,0000.34,18.7,25.0,08.3,05.7,0669.2,31.1
2021-07-22T10:32:00Z,00000200,00000000,0002.81,0001.90,0000.97,0000.42,0000.21,0000.25,0000.73,0000.79,0000.26,18.7,25.0,08.4,05.7,0669.3,31.1
2021-07-22T10:33:00Z,00000200,00000000,0002.18,0001.70,0001.19,0000.01,0000.70,0000.38,0000.55,0000.79,0000.44,18.7,25.0,08.4,05.8,0669.3,31.1
2021-07-22T10:34:00Z,00000200,00000000,0003.25,0001.64,0001.43,0000.72,0000.33,0000.33,0000.75,0000.18,0000.57,18.7,25.0,08.4,05.7,0669.3,31.1
2021-07-22T10:35:00Z,00000200,00000000,0002.95,0001.66,0000.84,0000.34,0000.14,0000.32,0000.57,0000.33,0000.22,18.7,25.0,08.4,05.7,0669.3,31.1
2021-07-22T10:36:00Z,00000200,00000000,0002.93,0001.78,0001.19,0000.15,0000.13,0000.60,0000.17,0000.50,0000.24,18.7,25.0,08.2,05.6,0669.2,31.1
2021-07-22T10:37:00Z,00000200,00000000,0002.34,0001.37,0000.83,0000.77,0000.03,0000.40,0000.39,0000.26,0000.01,18.7,25.0,08.3,05.6,0669.3,31.1
2021-07-22T10:38:00Z,00000200,00000000,0002.18,0001.97,0001.10,0000.93,0000.55,0000.17,0000.69,0000.81,0000.52,18.7,25.0,08.3,05.6,0669.3,31.1
2021-07-22T10:39:00Z,00000200,00000000,0002.60,0001.25,0000.92,0000.65,0000.35,-000.08,0000.53,0000.06,0000.40,18.7,25.0,08.4,05.7,0669.3,31.1
2021-07-22T10:40:00Z,00000200,00000000,0002.64,0001.77,0001.02,0000.54,0000.22,0000.16,0000.27,0000.63,0000.18,18.7,25.0,08.3,05.7,0669.3,31.1
2021-07-22T10:41:00Z,00000200,00000000,0002.93,0001.53,0001.11,0000.38,0000.56,0000.25,0000.41,0000.50,0000.44,18.7,25.0,08.3,05.7,0669.3,31.1
2021-07-22T10:42:00Z,00000200,00000000,0002.06,0001.70,0000.97,-000.05,0000.32,0000.28,0000.63,0000.15,0000.15,18.7,24.9,08.3,05.6,0669.3,31.1
2021-07-22T10:43:00Z,00000200,00000000,0002.68,0001.54,0000.98,0000.07,0000.24,0000.29,0000.32,0000.54,0000.69,18.7,25.0,08.2,05.6,0669.4,31.1
2021-07-22T10:44:00Z,00000200,00000000,0003.22,0001.69,0000.91,-000.25,0000.38,0000.50,0000.30,0000.38,0000.03,18.7,25.0,08.1,05.5,0669.3,31.1
2021-07-22T10:45:00Z,00000200,00000000,0002.51,0001.63,0000.95,-000.06,0000.22,0000.33,0000.38,0000.63,0000.46,18.7,25.0,08.2,05.6,0669.3,31.1
2021-07-22T10:46:00Z,00000200,00000000,0003.41,0001.51,0001.07,0000.49,0000.32,0000.30,0000.63,0000.28,0000.41,18.7,25.0,08.1,05.5,0669.3,31.1
2021-07-22T10:47:00Z,00000200,00000000,0002.16,0001.39,0001.12,-000.01,0000.06,0000.20,0000.32,0000.35,0000.29,18.7,25.0,08.1,05.5,0669.3,31.1
2021-07-22T10:48:00Z,00000200,00000000,0002.53,0001.33,0001.00,-000.37,0000.44,0000.52,0000.74,0000.26,0000.42,18.7,25.0,08.1,05.5,0669.3,31.1
2021-07-22T10:49:00Z,00000200,00000000,0002.98,0001.52,0001.27,-000.08,0000.45,0000.37,0000.42,0000.59,0000.04,18.7,24.9,08.1,05.5,0669.3,31.1
2021-07-22T10:50:00Z,00000200,00000000,0002.06,0001.43,0000.99,0000.13,0000.38,0000.40,0000.57,0000.43,0000.34,18.7,24.9,08.1,05.5,0669.3,31.1
2021-07-22T10:51:00Z,00000200,00000000,0002.38,0001.36,0001.13,0001.14,0000.64,0000.45,0000.44,0000.46,0000.57,18.7,24.9,08.1,05.5,0669.3,31.1
2021-07-22T10:52:00Z,00000200,00000000,0002.30,0001.79,0000.75,-000.18,0000.30,0000.19,0000.54,0000.37,0000.06,18.7,24.9,08.0,05.5,0669.3,31.1
2021-07-22T10:53:00Z,00000200,00000000,0002.59,0001.50,0000.70,-000.14,0000.28,0000.28,0000.26,0000.39,0000.47,18.7,24.9,08.0,05.5,0669.3,31.1
2021-07-22T10:54:00Z,00000200,00000000,0002.42,0002.00,0000.68,-000.01,0000.12,0000.23,0000.48,0000.48,0000.35,18.7,25.0,08.1,05.5,0669.4,31.1
2021-07-22T10:55:00Z,00000200,00000000,0002.73,0001.70,0000.73,0000.30,0000.20,-000.07,0000.88,0000.61,-000.02,18.7,24.9,08.0,05.5,0669.4,31.1
2021-07-22T10:56:00Z,00000200,00000000,0002.18,0001.51,0001.01,0000.21,0000.73,0000.53,0000.24,0000.26,0000.55,18.7,24.9,08.0,05.4,0669.4,31.1
2021-07-22T10:57:00Z,00000200,40000000,,,,,,,0000.26,0000.34,0000.30,18.7,25.0,07.6,05.2,0669.5,31.1
2021-07-22T10:58:00Z,00000200,60000000,,,,,,,-000.52,-000.48,-000.52,18.5,25.1,08.1,05.4,0668.3,31.1
2021-07-22T10:59:00Z,00000200,20000000,,,,,,,0000.26,0000.18,0000.24,18.5,25.2,08.0,05.3,0668.3,31.1
